Hourly Data Report for September 04, 2017

All times are specified in Local Standard Time (LST). Add 1 hour to adjust for Daylight Saving Time where and when it is observed.

MONCTON INTL A
NEW BRUNSWICK

46°06'44.000" N
64°40'43.000" W
70.70 m
8103201
71705
YQM

Download Data

Hourly Data (September 2017)
Hourly Data Report for September 4, 2017
Temp Definition
°C
Dew Point Temp Definition
°C
Rel Hum Definition
%
Wind Dir Definition
10's deg

Wind Spd Definition
km/h
Visibility Definition
km
Stn Press Definition
kPa
Hmdx Definition


Wind Chill Definition


Weather Definition


TIME
00:00 Legend Double Dagger 12.0 11.3 95 8 15 19.3 100.25     Rain
01:00 Legend Double Dagger 11.9 11.4 97 8 18 16.1 100.04     Rain,Drizzle
02:00 Legend Double Dagger 12.3 11.8 97 9 15 19.3 99.84     Drizzle
03:00 Legend Double Dagger 13.0 12.4 96 10 17 24.1 99.62     LegendNANA
04:00 Legend Double Dagger 14.5 13.6 94 12 16 24.1 99.41     LegendNANA
05:00 Legend Double Dagger 14.9 14.2 95 13 21 16.1 99.32     Rain
06:00 Legend Double Dagger 15.7 15.2 97 15 17 12.9 99.20     Drizzle
07:00 Legend Double Dagger 15.2 13.2 88 20 30 24.1 99.21     LegendNANA
08:00 Legend Double Dagger 14.5 12.1 85 18 23 24.1 99.18     Mostly Cloudy
09:00 Legend Double Dagger 14.7 11.7 82 19 25 24.1 99.14     LegendNANA
10:00 Legend Double Dagger 15.2 12.7 84 23 25 24.1 99.20     LegendNANA
11:00 Legend Double Dagger 15.8 13.3 85 24 37 24.1 99.28     Cloudy
12:00 Legend Double Dagger 16.0 11.9 77 23 40 24.1 99.36     Rain Showers
13:00 Legend Double Dagger 16.2 11.5 73 25 30 24.1 99.48     LegendNANA
14:00 Legend Double Dagger 17.3 11.4 68 25 35 24.1 99.53     Mostly Cloudy
15:00 Legend Double Dagger 17.9 11.1 64 25 31 24.1 99.59     LegendNANA
16:00 Legend Double Dagger 18.5 11.0 61 25 27 24.1 99.65     LegendNANA
17:00 Legend Double Dagger 19.0 11.0 59 25 28 24.1 99.70     Mostly Cloudy
18:00 Legend Double Dagger 18.4 11.4 63 24 21 24.1 99.76     LegendNANA
19:00 Legend Double Dagger 16.5 11.5 72 21 11 24.1 99.83     LegendNANA
20:00 Legend Double Dagger 15.0 11.7 81 20 14 24.1 99.91     Mainly Clear
21:00 Legend Double Dagger 15.3 11.9 80 21 17 24.1 99.94     LegendNANA
22:00 Legend Double Dagger 15.2 11.3 77 20 17 24.1 99.97     LegendNANA
23:00 Legend Double Dagger 15.4 11.1 75 21 16 24.1 99.98     Mainly Clear

Notes on Data Quality.

Legend

  • E = Estimated
  • M = Missing
  • NA = Not Available
  • ‡ = Partner data that is not subject to review by the National Climate Archives
Date modified: